This is the latest recevied weather packets stored in our database for station/object W8CEN. If no packets are shown the sender has not sent any weather packets the latest 10 day(s).
| Time | Temp. | Humidity | Pressure | Rain* | Wind** | Luminosity | Snow |
|---|---|---|---|---|---|---|---|
| 1777817386 | 11.67° C | 48% | 994.4 hPa | 0 mm | - | 538 W/m² | - |
| 1777817083 | 11.67° C | 47% | 994.6 hPa | 0 mm | - | 523 W/m² | - |
| 1777816779 | 11.11° C | 49% | 994.6 hPa | 0 mm | - | 506 W/m² | - |
| 1777816477 | 11.11° C | 50% | 994.6 hPa | 0 mm | - | 490 W/m² | - |
| 1777816174 | 11.11° C | 49% | 994.5 hPa | 0 mm | - | 474 W/m² | - |
| 1777815872 | 10.56° C | 52% | 994.8 hPa | 0 mm | - | 457 W/m² | - |
| 1777815569 | 10.56° C | 50% | 994.4 hPa | 0 mm | - | 443 W/m² | - |
| 1777815267 | 10.56° C | 50% | 994.5 hPa | 0 mm | - | 428 W/m² | - |
| 1777814962 | 10.56° C | 52% | 994.2 hPa | 0 mm | - | 410 W/m² | - |
| 1777814659 | 10° C | 52% | 994.4 hPa | 0 mm | - | 395 W/m² | - |
| 1777814356 | 10° C | 53% | 994.6 hPa | 0 mm | - | 377 W/m² | - |
| 1777814053 | 10° C | 52% | 994.2 hPa | 0 mm | - | 272 W/m² | - |
| 1777813750 | 10° C | 53% | 994.5 hPa | 0 mm | - | 316 W/m² | - |
| 1777813448 | 9.44° C | 53% | 994.5 hPa | 0 mm | - | 332 W/m² | - |
| 1777813145 | 8.89° C | 57% | 994.4 hPa | 0 mm | - | 315 W/m² | - |
| 1777812843 | 8.33° C | 57% | 994.3 hPa | 0 mm | - | 282 W/m² | - |
| 1777812539 | 8.33° C | 58% | 994.4 hPa | 0 mm | - | 241 W/m² | - |
| 1777812237 | 8.33° C | 59% | 994.5 hPa | 0 mm | - | 228 W/m² | - |
| 1777811935 | 7.78° C | 56% | 994.4 hPa | 0 mm | - | 252 W/m² | - |
| 1777811634 | 7.78° C | 58% | 994.5 hPa | 0 mm | - | 232 W/m² | - |
| 1777811333 | 7.22° C | 58% | 994.4 hPa | 0 mm | - | 213 W/m² | - |
| 1777811031 | 6.67° C | 61% | 994.5 hPa | 0 mm | - | 195 W/m² | - |
| 1777810728 | 6.67° C | 58% | 994.7 hPa | 0 mm | - | 182 W/m² | - |
| 1777810424 | 6.67° C | 60% | 994.5 hPa | 0 mm | - | 171 W/m² | - |
| 1777810120 | 6.11° C | 63% | 994.7 hPa | 0 mm | - | 157 W/m² | - |
* Rain latest hour (hover to see other rain measurements)
** Current wind speed in m/s (hover to see current wind gust speed)